When you browse on this site, cookies collect data to enhance your experience and personalize the content and advertising you see.
Visit our Privacy Policy to learn more. By continuing to use the site, you agree to this use of cookies and data.
  • In Sweden
  • List of Countries
  • For 7 days
  • Water Temperature
  • Weather Map
  • Weather Widgets
  • user-avatar
    Login

    Hourly Weather Dzhizan

    Today, 18 September, Wednesday

    Time Temperature Precipitation Wind Pressure Humidity
    00:00 +33°C° 0 mm 1 mps 755 mmHg 70%
    01:00 +33°C° 0 mm 1 mps 755 mmHg 71%
    02:00 +33°C° 0 mm 1 mps 754 mmHg 72%
    03:00 +32°C° 0 mm 2 mps 754 mmHg 75%
    04:00 +32°C° 0 mm 1 mps 754 mmHg 76%
    05:00 +32°C° 0 mm 1 mps 755 mmHg 76%
    06:00 +32°C° 0 mm 1 mps 755 mmHg 76%
    07:00 +33°C° 0 mm 1 mps 756 mmHg 72%
    08:00 +34°C° 0 mm 1 mps 756 mmHg 67%
    09:00 +35°C° 0 mm 1 mps 756 mmHg 64%
    10:00 +36°C° 0 mm 3 mps 756 mmHg 64%
    11:00 +37°C° 0 mm 5 mps 755 mmHg 64%
    12:00 +38°C° 0 mm 7 mps 755 mmHg 64%
    13:00 +38°C° 0 mm 7 mps 754 mmHg 63%
    14:00 +38°C° 0 mm 7 mps 754 mmHg 63%
    15:00 +38°C° 0 mm 7 mps 753 mmHg 62%
    16:00 +36°C° 0 mm 6 mps 753 mmHg 64%
    17:00 +36°C° 0 mm 5 mps 754 mmHg 67%
    18:00 +35°C° 0 mm 4 mps 754 mmHg 69%
    19:00 +35°C° 0 mm 3 mps 755 mmHg 69%
    20:00 +35°C° 0 mm 2 mps 755 mmHg 69%
    21:00 +33°C° 0 mm 1 mps 756 mmHg 69%
    22:00 +33°C° 0 mm 1 mps 756 mmHg 69%
    23:00 +33°C° 0 mm 1 mps 756 mmHg 69%

    Tomorrow, 19 September, Thursday

    Time Temperature Precipitation Wind Pressure Humidity
    00:00 +33°C° 0 mm 1 mps 756 mmHg 69%
    01:00 +33°C° 0 mm 1 mps 755 mmHg 70%
    02:00 +33°C° 0 mm 1 mps 755 mmHg 71%
    03:00 +34°C° 0 mm 2 mps 755 mmHg 72%
    04:00 +32°C° 0 mm 2 mps 755 mmHg 73%
    05:00 +32°C° 0 mm 1 mps 755 mmHg 75%
    06:00 +32°C° 0 mm 1 mps 756 mmHg 76%
    07:00 +34°C° 0 mm 2 mps 756 mmHg 72%
    08:00 +34°C° 0 mm 3 mps 756 mmHg 68%
    09:00 +35°C° 0 mm 3 mps 756 mmHg 65%
    10:00 +36°C° 0 mm 4 mps 756 mmHg 62%
    11:00 +37°C° 0 mm 4 mps 756 mmHg 60%
    12:00 +37°C° 0 mm 5 mps 755 mmHg 58%
    13:00 +37°C° 0 mm 5 mps 754 mmHg 58%
    14:00 +37°C° 0 mm 5 mps 754 mmHg 58%
    15:00 +37°C° 0 mm 5 mps 753 mmHg 59%
    16:00 +36°C° 0 mm 5 mps 753 mmHg 60%
    17:00 +36°C° 0 mm 4 mps 753 mmHg 60%
    18:00 +36°C° 0 mm 4 mps 753 mmHg 61%
    19:00 +35°C° 0 mm 3 mps 754 mmHg 63%
    20:00 +35°C° 0 mm 2 mps 754 mmHg 64%
    21:00 +34°C° 0 mm 1 mps 755 mmHg 65%
    22:00 +33°C° 0 mm 1 mps 755 mmHg 66%
    23:00 +33°C° 0 mm 1 mps 755 mmHg 66%

    Day after tomorrow, 20 September, Friday

    Time Temperature Precipitation Wind Pressure Humidity
    00:00 +33°C° 0 mm 1 mps 754 mmHg 66%
    01:00 +33°C° 0 mm 1 mps 754 mmHg 67%
    02:00 +34°C° 0 mm 2 mps 754 mmHg 68%
    03:00 +32°C° 0 mm 2 mps 754 mmHg 70%
    04:00 +32°C° 0 mm 2 mps 754 mmHg 71%
    05:00 +32°C° 0 mm 2 mps 754 mmHg 72%
    06:00 +32°C° 0 mm 1 mps 755 mmHg 73%
    07:00 +33°C° 0 mm 1 mps 755 mmHg 69%
    08:00 +33°C° 0 mm 1 mps 755 mmHg 65%
    09:00 +34°C° 0 mm 1 mps 755 mmHg 61%
    10:00 +36°C° 0 mm 2 mps 755 mmHg 58%
    11:00 +37°C° 0 mm 3 mps 754 mmHg 55%
    12:00 +38°C° 0 mm 4 mps 754 mmHg 53%
    13:00 +38°C° 0 mm 4 mps 753 mmHg 52%
    14:00 +38°C° 0 mm 4 mps 752 mmHg 52%
    15:00 +39°C° 0 mm 5 mps 752 mmHg 52%
    16:00 +37°C° 0 mm 4 mps 752 mmHg 55%
    17:00 +36°C° 0 mm 4 mps 752 mmHg 58%
    18:00 +35°C° 0 mm 3 mps 753 mmHg 62%
    19:00 +35°C° 0 mm 2 mps 753 mmHg 63%
    20:00 +35°C° 0 mm 2 mps 754 mmHg 63%
    21:00 +33°C° 0 mm 1 mps 754 mmHg 64%
    22:00 +34°C° 0 mm 1 mps 754 mmHg 63%
    23:00 +34°C° 0 mm 1 mps 754 mmHg 63%

    21 September, Saturday

    Time Temperature Precipitation Wind Pressure Humidity
    00:00 +34°C° 0 mm 1 mps 754 mmHg 62%
    01:00 +33°C° 0 mm 1 mps 754 mmHg 63%
    02:00 +33°C° 0 mm 1 mps 753 mmHg 63%
    03:00 +33°C° 0 mm 1 mps 753 mmHg 63%
    04:00 +32°C° 0 mm 1 mps 753 mmHg 64%
    05:00 +32°C° 0 mm 1 mps 754 mmHg 65%
    06:00 +30°C° 0 mm 0 mps 754 mmHg 66%
    07:00 +33°C° 0 mm 1 mps 754 mmHg 61%
    08:00 +34°C° 0 mm 1 mps 755 mmHg 56%
    09:00 +36°C° 0 mm 1 mps 755 mmHg 51%
    10:00 +37°C° 0 mm 2 mps 754 mmHg 50%
    11:00 +38°C° 0 mm 3 mps 754 mmHg 49%
    12:00 +38°C° 0 mm 4 mps 754 mmHg 47%
    13:00 +38°C° 0 mm 4 mps 753 mmHg 49%
    14:00 +39°C° 0 mm 5 mps 752 mmHg 50%
    15:00 +37°C° 0 mm 5 mps 752 mmHg 51%
    16:00 +37°C° 0 mm 4 mps 752 mmHg 53%
    17:00 +36°C° 0 mm 3 mps 752 mmHg 55%
    18:00 +35°C° 0 mm 3 mps 752 mmHg 57%
    19:00 +35°C° 0 mm 2 mps 753 mmHg 58%
    20:00 +34°C° 0 mm 1 mps 753 mmHg 58%
    21:00 +32°C° 0 mm 0 mps 754 mmHg 59%
    22:00 +32°C° 0 mm 0 mps 754 mmHg 60%
    23:00 +31°C° 0 mm 0 mps 754 mmHg 61%

    22 September, Sunday

    Time Temperature Precipitation Wind Pressure Humidity
    00:00 +31°C° 0 mm 0 mps 754 mmHg 62%
    01:00 +31°C° 0 mm 0 mps 754 mmHg 63%
    02:00 +33°C° 0 mm 1 mps 753 mmHg 63%
    03:00 +32°C° 0 mm 1 mps 753 mmHg 64%
    04:00 +32°C° 0 mm 1 mps 754 mmHg 65%
    05:00 +32°C° 0 mm 1 mps 754 mmHg 66%
    06:00 +32°C° 0 mm 1 mps 754 mmHg 67%
    07:00 +33°C° 0 mm 1 mps 755 mmHg 61%
    08:00 +34°C° 0 mm 1 mps 755 mmHg 56%
    09:00 +35°C° 0 mm 1 mps 755 mmHg 51%
    10:00 +37°C° 0 mm 2 mps 755 mmHg 49%
    11:00 +38°C° 0 mm 3 mps 755 mmHg 47%
    12:00 +38°C° 0 mm 4 mps 754 mmHg 46%
    13:00 +39°C° 0 mm 5 mps 754 mmHg 48%
    14:00 +39°C° 0 mm 5 mps 753 mmHg 50%
    15:00 +37°C° 0 mm 5 mps 753 mmHg 52%
    16:00 +37°C° 0 mm 4 mps 753 mmHg 54%
    17:00 +36°C° 0 mm 3 mps 753 mmHg 56%
    18:00 +35°C° 0 mm 2 mps 753 mmHg 58%
    19:00 +35°C° 0 mm 2 mps 754 mmHg 60%
    20:00 +34°C° 0 mm 1 mps 754 mmHg 62%
    21:00 +31°C° 0 mm 0 mps 755 mmHg 64%
    22:00 +31°C° 0 mm 0 mps 755 mmHg 64%
    23:00 +33°C° 0 mm 1 mps 755 mmHg 64%

    23 September, Monday

    Time Temperature Precipitation Wind Pressure Humidity
    00:00 +33°C° 0 mm 1 mps 755 mmHg 64%
    01:00 +33°C° 0 mm 1 mps 755 mmHg 64%
    02:00 +32°C° 0 mm 1 mps 754 mmHg 65%
    03:00 +32°C° 0 mm 1 mps 754 mmHg 65%
    04:00 +32°C° 0 mm 1 mps 754 mmHg 65%
    05:00 +32°C° 0 mm 1 mps 755 mmHg 65%
    06:00 +32°C° 0 mm 1 mps 755 mmHg 65%
    07:00 +34°C° 0 mm 2 mps 755 mmHg 60%
    08:00 +35°C° 0 mm 2 mps 756 mmHg 54%
    09:00 +37°C° 0 mm 2 mps 756 mmHg 49%
    10:00 +37°C° 0 mm 3 mps 756 mmHg 50%
    11:00 +37°C° 0 mm 4 mps 755 mmHg 50%
    12:00 +39°C° 0 mm 5 mps 755 mmHg 50%
    13:00 +39°C° 0 mm 6 mps 754 mmHg 51%
    14:00 +38°C° 0 mm 6 mps 754 mmHg 51%
    15:00 +38°C° 0 mm 6 mps 753 mmHg 52%
    16:00 +37°C° 0 mm 5 mps 753 mmHg 54%
    17:00 +36°C° 0 mm 4 mps 753 mmHg 56%
    18:00 +35°C° 0 mm 3 mps 754 mmHg 58%
    19:00 +35°C° 0 mm 3 mps 754 mmHg 60%
    20:00 +34°C° 0 mm 2 mps 754 mmHg 62%
    21:00 +33°C° 0 mm 1 mps 755 mmHg 64%
    22:00 +33°C° 0 mm 1 mps 755 mmHg 64%
    23:00 +33°C° 0 mm 1 mps 755 mmHg 63%
    Show more